Stations météo

réclame
Mon MeteoGroup
Maastricht, Pays-Bas (6380): Température de l'air & dewpoint: 14.11.2017 01:00:00 - 20.11.2017 01:00:00 (CET)Maastricht, Pays-Bas (6380): Température de l'air 5cm: 14.11.2017 01:00:00 - 20.11.2017 01:00:00 (CET)Maastricht, Pays-Bas (6380): Vitesse du vent & gusts: 14.11.2017 01:00:00 - 20.11.2017 01:00:00 (CET)Maastricht, Pays-Bas (6380): Direction du vent: 14.11.2017 01:00:00 - 20.11.2017 01:00:00 (CET)Maastricht, Pays-Bas (6380): reduced air pressure: 14.11.2017 01:00:00 - 20.11.2017 01:00:00 (CET)Maastricht, Pays-Bas (6380): visibility: 14.11.2017 01:00:00 - 20.11.2017 01:00:00 (CET)Maastricht, Pays-Bas (6380): Quantités de précipitations: 14.11.2017 01:00:00 - 20.11.2017 01:00:00 (CET)
Date & Time tt [°C] td [°C] tt 5cm [°C] ff [km/h] ff [knt] fx [km/h] fx [knt] dd ppp [hPa] vv [km] rr [mm]
20.11.2017 01:00:00 3,0 2,0 2,3 15 8 - - SW 1023,0 10 -
20.11.2017 00:00:00 2,6 1,6 1,9 15 8 18 10 SW 1023,4 10 0,0
19.11.2017 23:00:00 3,0 1,9 2,1 15 8 22 12 SW 1023,4 10 0,0
19.11.2017 22:00:00 4,0 2,6 3,2 11 6 - - WSW 1023,2 10 0,0
19.11.2017 21:00:00 5,0 3,3 4,5 11 6 22 12 WSW 1022,8 10 0,0
19.11.2017 20:00:00 5,3 2,9 4,7 11 6 22 12 W 1022,2 10 0,0
19.11.2017 19:00:00 5,5 3,5 4,8 9 5 - - W 1022,0 10 0,0
19.11.2017 18:00:00 5,5 3,8 5,0 13 7 25 14 W 1021,4 10 0,1
19.11.2017 17:00:00 5,6 3,3 4,3 9 5 29 16 WSW 1020,9 10 0,0
19.11.2017 16:00:00 6,4 3,0 5,7 13 7 - - W 1020,5 10 0,0
19.11.2017 15:00:00 7,6 3,7 8,1 15 8 32 18 W 1020,0 10 0,0
19.11.2017 14:00:00 7,8 3,9 8,3 15 8 29 16 W 1020,0 10 0,0
19.11.2017 13:00:00 6,9 3,7 7,2 15 8 - - W 1020,0 10 0,0
19.11.2017 12:00:00 6,6 3,4 7,5 15 8 25 14 WSW 1019,9 10 0,0
19.11.2017 11:00:00 5,9 3,3 6,3 15 8 29 16 WSW 1019,7 10 0,0
19.11.2017 10:00:00 4,5 2,9 4,1 11 6 - - WSW 1019,2 10 0,0
19.11.2017 09:00:00 3,6 1,9 3,1 9 5 22 12 WSW 1018,8 10 0,0
19.11.2017 08:00:00 3,5 1,6 2,8 11 6 18 10 WSW 1018,4 10 0,0
19.11.2017 07:00:00 3,5 1,5 2,8 11 6 - - WSW 1017,8 10 0,0
19.11.2017 06:00:00 3,5 2,5 2,4 8 4 14 8 WSW 1017,6 10 0,0
19.11.2017 05:00:00 4,3 3,4 3,6 9 5 14 8 W 1017,1 10 0,0
19.11.2017 04:00:00 4,3 3,4 3,7 11 6 - - NW 1017,1 10 0,0
19.11.2017 03:00:00 4,9 3,6 4,3 15 8 36 19 WNW 1016,6 10 0,8
19.11.2017 02:00:00 5,3 4,7 4,8 8 4 18 10 W 1016,2 10 0,0
19.11.2017 01:00:00 5,5 4,8 5,2 9 5 - - W 1016,4 10 0,4
19.11.2017 00:00:00 5,7 4,7 5,4 11 6 22 12 WSW 1016,4 10 0,3
18.11.2017 23:00:00 5,8 4,7 5,4 11 6 25 14 WSW 1017,0 10 2,8
18.11.2017 22:00:00 6,3 5,4 6,1 18 10 - - W 1017,2 10 0,0
18.11.2017 21:00:00 6,6 5,4 6,4 22 12 32 18 SW 1017,6 10 0,0
18.11.2017 20:00:00 6,5 4,7 6,1 24 13 36 19 SW 1017,7 10 0,0
18.11.2017 19:00:00 6,5 4,0 5,6 22 12 - - SW 1018,5 10 0,0
18.11.2017 18:00:00 6,4 3,5 5,8 24 13 36 19 SW 1018,8 10 0,0
18.11.2017 17:00:00 6,4 3,1 5,5 22 12 29 16 SW 1019,1 10 0,0
18.11.2017 16:00:00 6,1 2,7 5,4 26 14 - - SW 1019,3 10 0,0
18.11.2017 15:00:00 6,0 2,3 5,3 31 17 40 21 SW 1019,8 10 0,0
18.11.2017 14:00:00 5,8 1,6 5,5 28 15 43 23 SW 1020,3 10 0,0
18.11.2017 13:00:00 5,8 1,3 5,7 26 14 - - SW 1021,1 10 0,0
18.11.2017 12:00:00 5,1 1,3 4,6 21 11 40 21 WSW 1022,0 10 0,0
18.11.2017 11:00:00 4,4 1,3 3,9 24 13 32 18 SW 1022,1 10 0,0
18.11.2017 10:00:00 3,5 1,8 2,8 16 9 - - SSW 1022,7 10 0,0
18.11.2017 09:00:00 2,0 1,1 1,9 15 8 22 12 SSW 1023,4 10 0,0
18.11.2017 08:00:00 1,5 0,8 1,4 13 7 18 10 SSW 1023,3 10 0,0
18.11.2017 07:00:00 1,1 0,4 0,9 15 8 - - SSW 1023,1 10 0,0
18.11.2017 06:00:00 0,9 0,3 0,6 15 8 18 10 SSW 1023,8 10 0,0
18.11.2017 05:00:00 0,7 0,1 0,0 13 7 18 10 SSW 1024,2 9 0,0
18.11.2017 04:00:00 0,8 0,2 0,1 16 9 - - SSW 1024,5 5 0,0
18.11.2017 03:00:00 1,3 0,5 0,4 11 6 18 10 SSW 1025,3 10 0,0
18.11.2017 02:00:00 1,3 0,6 0,5 11 6 18 10 SSW 1025,7 10 0,0
18.11.2017 01:00:00 1,6 0,5 0,4 11 6 - - SSW 1025,9 10 0,0
18.11.2017 00:00:00 1,5 0,5 0,5 9 5 18 10 S 1026,4 10 0,0
17.11.2017 23:00:00 1,8 0,5 0,7 8 4 18 10 SW 1026,6 10 0,0
17.11.2017 22:00:00 2,5 0,9 1,1 11 6 - - SSW 1026,7 10 0,0
17.11.2017 21:00:00 2,2 0,5 0,7 9 5 14 8 SSW 1026,7 10 0,0
17.11.2017 20:00:00 3,0 0,5 0,4 8 4 14 8 SW 1027,1 10 0,0
17.11.2017 19:00:00 5,8 0,1 -0,6 4 2 - - SW 1027,1 10 0,0
17.11.2017 18:00:00 3,9 1,1 0,3 4 2 4 2 SSW 1027,1 10 0,0
17.11.2017 17:00:00 5,9 0,9 1,7 0 0 7 4 N 1027,1 10 0,0
17.11.2017 16:00:00 7,4 1,1 5,2 8 4 - - N 1027,4 10 0,0
17.11.2017 15:00:00 8,8 1,9 8,5 9 5 14 8 NNW 1027,3 10 0,0
17.11.2017 14:00:00 9,0 2,4 9,0 8 4 14 8 NNW 1027,6 10 0,0
17.11.2017 13:00:00 8,3 5,1 8,4 5 3 - - NW 1027,7 10 0,0
17.11.2017 12:00:00 9,0 5,0 10,0 5 3 11 6 NE 1027,8 10 0,0
17.11.2017 11:00:00 8,4 5,3 8,6 8 4 14 8 NE 1028,0 10 0,0
17.11.2017 10:00:00 6,9 5,4 5,5 5 3 - - N 1028,1 10 0,0
17.11.2017 09:00:00 5,5 4,8 4,5 9 5 14 8 NNW 1027,9 8 0,0
17.11.2017 08:00:00 6,2 5,5 5,3 5 3 14 8 N 1027,3 9 0,0
17.11.2017 07:00:00 6,7 6,3 6,0 9 5 - - NNW 1026,8 7 0,0
17.11.2017 06:00:00 7,4 7,1 7,0 8 4 14 8 N 1026,3 7 0,0
17.11.2017 05:00:00 8,0 7,8 7,8 11 6 18 10 N 1026,1 7 0,0
17.11.2017 04:00:00 8,2 7,9 8,1 11 6 - - N 1025,6 6 0,0
17.11.2017 03:00:00 8,5 8,1 8,3 15 8 22 12 N 1025,3 6 0,3
17.11.2017 02:00:00 8,6 8,5 8,6 5 3 14 8 WNW 1025,0 1,6 0,4
17.11.2017 01:00:00 8,6 8,3 8,6 11 6 - - SW 1024,6 2,7 0,0
17.11.2017 00:00:00 8,7 8,3 8,6 9 5 18 10 SW 1024,8 3,6 0,0
16.11.2017 23:00:00 8,7 7,9 8,5 11 6 22 12 WSW 1024,7 4,3 0,0
16.11.2017 22:00:00 8,8 7,9 8,5 15 8 - - SW 1024,5 4,8 0,0
16.11.2017 21:00:00 8,9 7,9 8,7 16 9 18 10 SW 1024,2 6 0,0
16.11.2017 20:00:00 9,1 7,8 8,7 15 8 18 10 SW 1024,1 9 0,0
16.11.2017 19:00:00 8,8 8,1 8,6 13 7 - - SSW 1023,6 8 0,0
16.11.2017 18:00:00 8,8 8,2 8,6 13 7 14 8 SSW 1023,4 7 0,0
16.11.2017 17:00:00 8,8 8,3 8,7 16 9 22 12 SW 1023,3 7 0,0
16.11.2017 16:00:00 9,4 8,0 9,2 16 9 - - SW 1023,0 10 0,0
16.11.2017 15:00:00 10,1 7,3 9,8 18 10 22 12 SW 1023,0 10 0,0
16.11.2017 14:00:00 9,9 6,9 9,8 13 7 18 10 S 1023,3 10 0,0
16.11.2017 13:00:00 9,1 6,1 9,2 13 7 - - S 1023,8 10 0,0
16.11.2017 12:00:00 8,8 6,2 9,0 15 8 22 12 SSW 1024,2 10 0,0
16.11.2017 11:00:00 8,5 6,7 8,5 15 8 18 10 S 1024,2 10 0,0
16.11.2017 10:00:00 7,8 6,7 7,5 9 5 - - S 1024,3 10 0,0
16.11.2017 09:00:00 7,4 6,5 7,1 9 5 14 8 SSW 1024,1 10 0,0
16.11.2017 08:00:00 7,4 6,6 7,0 9 5 14 8 SW 1024,0 10 0,0
16.11.2017 07:00:00 7,1 6,8 6,8 8 4 - - SSW 1023,6 8 0,0
16.11.2017 06:00:00 6,2 6,1 4,7 8 4 11 6 SW 1023,9 8 0,0
16.11.2017 05:00:00 7,0 6,7 6,7 9 5 14 8 SW 1024,0 10 0,0
16.11.2017 04:00:00 7,4 7,3 7,1 8 4 - - WSW 1024,5 7 0,0
16.11.2017 03:00:00 6,8 6,8 5,0 9 5 11 6 SSW 1024,5 3,6 0,0
16.11.2017 02:00:00 6,6 6,4 5,7 9 5 11 6 SSW 1024,6 4,6 0,0
16.11.2017 01:00:00 7,9 7,5 7,7 5 3 - - S 1025,0 9 0,0
16.11.2017 00:00:00 8,3 7,9 8,0 5 3 14 8 SW 1025,3 7 0,0
15.11.2017 23:00:00 8,5 8,0 8,2 9 5 14 8 WSW 1025,5 10 0,0
15.11.2017 22:00:00 8,4 8,1 8,2 11 6 - - SSW 1025,3 10 0,0
15.11.2017 21:00:00 8,7 8,6 8,6 5 3 11 6 SSW 1025,7 7 0,0
15.11.2017 20:00:00 8,9 8,8 8,7 8 4 11 6 S 1025,6 6 0,0
15.11.2017 19:00:00 9,0 8,8 8,9 8 4 - - SW 1025,8 2,8 0,0
15.11.2017 18:00:00 9,1 8,8 9,0 8 4 7 4 SSW 1025,8 5 0,0
15.11.2017 17:00:00 9,1 8,8 9,1 8 4 18 10 SSW 1025,7 10 0,0
15.11.2017 16:00:00 9,3 9,2 9,4 9 5 - - SSW 1025,8 5 0,0
15.11.2017 15:00:00 9,2 9,2 9,5 13 7 18 10 SSW 1025,7 4,2 0,0
15.11.2017 14:00:00 9,0 8,9 9,3 13 7 18 10 SSW 1025,8 1,6 0,0
15.11.2017 13:00:00 8,6 8,5 9,1 15 8 - - SSW 1026,1 1,7 0,1
15.11.2017 12:00:00 8,2 8,1 8,6 13 7 18 10 SSW 1026,4 1,6 0,1
15.11.2017 11:00:00 7,8 7,8 8,2 15 8 22 12 SSW 1026,6 1,7 0,0
15.11.2017 10:00:00 7,5 7,3 7,7 16 9 - - SSW 1026,4 1,8 0,1
15.11.2017 09:00:00 7,0 7,0 7,1 15 8 25 14 SSW 1026,5 2,3 0,0
15.11.2017 08:00:00 6,7 6,6 6,6 16 9 22 12 SSW 1026,1 3,5 0,1
15.11.2017 07:00:00 6,5 6,3 6,4 16 9 - - SSW 1025,7 1,9 0,2
15.11.2017 06:00:00 6,5 6,1 6,4 15 8 22 12 SSW 1025,6 6 0,0
15.11.2017 05:00:00 6,3 6,0 6,3 16 9 22 12 SSW 1025,6 4,8 0,0
15.11.2017 04:00:00 6,3 6,0 6,2 16 9 - - SSW 1025,8 5 0,0
15.11.2017 03:00:00 6,3 6,0 6,3 15 8 18 10 SSW 1026,1 4,1 0,0
15.11.2017 02:00:00 6,2 6,1 6,2 15 8 18 10 S 1026,2 3,6 0,0
15.11.2017 01:00:00 6,2 6,2 6,2 15 8 - - SSW 1026,2 1,9 0,1
15.11.2017 00:00:00 6,2 6,1 6,2 16 9 22 12 SSW 1026,2 2,3 0,1
14.11.2017 23:00:00 6,5 6,2 6,5 15 8 25 14 SW 1026,1 2,4 0,2
14.11.2017 22:00:00 7,0 5,3 6,7 21 11 - - SW 1026,2 3,9 0,0
14.11.2017 21:00:00 7,5 4,7 7,1 18 10 25 14 SW 1026,0 10 0,0
14.11.2017 20:00:00 7,7 4,6 7,2 21 11 25 14 SW 1025,7 10 0,0
14.11.2017 19:00:00 7,8 4,8 7,3 21 11 - - SW 1025,5 10 0,0
14.11.2017 18:00:00 8,0 4,9 7,4 22 12 29 16 SW 1025,5 10 0,0
14.11.2017 17:00:00 8,0 4,7 7,4 21 11 25 14 SW 1025,0 10 0,0
14.11.2017 16:00:00 8,3 4,8 7,9 18 10 - - SW 1024,9 10 0,0
14.11.2017 15:00:00 8,7 4,3 9,0 26 14 29 16 SW 1024,8 10 0,0
14.11.2017 14:00:00 8,4 4,3 8,2 24 13 32 18 SW 1024,9 10 0,0
14.11.2017 13:00:00 7,9 4,6 8,0 22 12 - - SW 1025,2 10 0,0
14.11.2017 12:00:00 7,3 4,5 7,9 18 10 29 16 SSW 1025,5 10 0,0
14.11.2017 11:00:00 5,5 4,3 5,6 21 11 25 14 SSW 1025,8 8 0,0
14.11.2017 10:00:00 4,2 3,5 4,2 18 10 - - SSW 1025,8 6 0,0
14.11.2017 09:00:00 3,0 2,6 2,9 21 11 22 12 SSW 1025,9 5 0,0
14.11.2017 08:00:00 2,4 2,0 2,2 16 9 25 14 SSW 1025,6 6 0,0
14.11.2017 07:00:00 1,6 1,2 1,3 21 11 - - SSW 1025,0 4,7 0,0
14.11.2017 06:00:00 1,7 1,4 1,3 18 10 25 14 SSW 1024,8 6 0,0
14.11.2017 05:00:00 1,9 1,6 1,4 11 6 25 14 SSW 1024,8 7 0,0
14.11.2017 04:00:00 1,3 1,0 0,6 15 8 - - SSW 1024,6 5 0,0
14.11.2017 03:00:00 0,7 0,6 -0,3 13 7 14 8 SSW 1024,6 6 0,0
14.11.2017 02:00:00 1,1 0,7 0,1 13 7 14 8 SSW 1024,5 9 0,0
14.11.2017 01:00:00 1,3 0,9 0,1 13 7 - - SSW 1024,5 8 0,0

tt = Température de l'air
td = dewpoint
tt 5cm = Température de l'air 5cm
ff = Vitesse du vent
fx = gusts
dd = Direction du vent
ppp = reduced air pressure
vv = visibility
rr = Quantités de précipitations

stations d'obs. à proximité